Regional Weather Roundup
Issued by NWS

Home | Current Version | Previous Version | Graphics & Text | Print | Product List | Glossary On
Versions: 1 2 3 4 5 6 7 8 9 10 11 12 13 14 15 16 17 18 19 20 21 22 23 24 25 26 27 28 29 30 31 32 33 34 35 36 37 38 39 40 41 42 43 44 45 46 47 48 49 50
000
ASUS43 KLMK 090710
RWRKY
KENTUCKY REGIONAL WEATHER ROUNDUP
NATIONAL WEATHER SERVICE LOUISVILLE KY
200 AM EST FRI DEC 09 2016

NOTE "FAIR" INDICATES FEW OR NO CLOUDS BELOW 12,000 FEET
WITH NO SIGNIFICANT WEATHER AND/OR OBSTRUCTIONS TO VISIBILITY.

KYZ001>023-026-027-061>063-070>075-090800-
WESTERN AND SOUTH CENTRAL KENTUCKY

CITY           SKY/WX    TMP DP  RH WIND       PRES   REMARKS
PADUCAH        CLEAR     24  12  60 NW7       30.57F WCI  16
HENDERSON      CLOUDY    27  12  54 NW10G18   30.55F WCI  17
OWENSBORO      CLOUDY    26  16  65 N10       30.55S WCI  16
HOPKINSVILLE   CLEAR     23  14  70 NW7       30.54R WCI  14
BOWLING GREEN  CLOUDY    27  15  61 N9G16     30.53S WCI  18
GLASGOW        CLOUDY    26  16  67 N6        30.50S WCI  19
$$

KYZ024-025-028>034-038-045-046-053-090800-
NORTH CENTRAL KENTUCKY

CITY           SKY/WX    TMP DP  RH WIND       PRES   REMARKS
LOUISVILLE/SDF FLURRIES  25  11  55 N15       30.51S WCI  13
LOUISVILLE/LOU CLOUDY    25  12  58 NW15      30.52S WCI  13
FORT KNOX      FLURRIES  24  15  69 NW8       30.48S WCI  14
$$

KYZ035>037-039>044-047>052-055>060-089>105-090800-
NORTHEAST KENTUCKY

CITY           SKY/WX    TMP DP  RH WIND       PRES   REMARKS
LEXINGTON      LGT SNOW  23  16  74 NW9       30.46S WCI  13
COVINGTON      LGT SNOW  22  16  78 NW9       30.45S WCI  12
FRANKFORT      FLURRIES  24  14  65 W6        30.47R WCI  17
$$

KYZ054-064>069-076>088-106>120-090800-
SOUTHEAST KENTUCKY

CITY           SKY/WX    TMP DP  RH WIND       PRES   REMARKS
JACKSON        CLOUDY    23  13  65 VRB7      30.41R WCI  15
LONDON         CLOUDY    23  13  65 NW8       30.44R WCI  14
SOMERSET       CLOUDY    25  14  63 N7        30.48S WCI  17
MIDDLESBORO    MOCLDY    27  16  65 NW10      30.42R WCI  17
MONTICELLO     CLOUDY    25  16  68 NW7       30.49R WCI  17
$$





USA.gov is the U.S. government's official web portal to all federal, state and local government web resources and services.